Location: ??????????
(44.2167°N, 135.5333°E)
Time: 13:28:21
(UTC+00:00)

USA 229 - Pass Details

Date: 15 June 2025
Orbit: 856 x 1355 km, 63.4° (Epoch: 26 June)

Event Time Altitude Azimuth Distance (km) Brightness Sun altitude
Rises 16:18:58 0° 322° (NW) 3,982 7.1 -20.0°
Reaches altitude 10° 16:21:33 10° 323° (NW) 3,087 6.5 -19.8°
Maximum altitude 16:29:07 86° 52° (NE) 1,272 4.0 -19.3°
Drops below altitude 10° 16:37:23 10° 143° (SE) 3,364 6.0 -18.8°
Sets 16:40:19 0° 144° (SE) 4,357 6.6 -18.5°
